Location: Moscow Pond
(43.6842°N, 73.2366°W)
Time: 20:34:13
(UTC+00:00)

USA 59 Rocket - Pass Details

Date: 08 November 2025
Orbit: 370 x 1678 km, 63.3° (Epoch: 10 December)

Event Time Altitude Azimuth Distance (km) Brightness Sun altitude
Exits shadow 10:05:59 21° 346° (NNW) 976 0.9 -16.9°
Drops below altitude 10° 10:07:29 10° 12° (NNE) 1,409 2.0 -16.7°
Sets 10:09:37 0° 27° (NNE) 2,234 3.2 -16.3°
